Weather History for Worland, WY

Change the Weather History Date:

Saturday, January 19, 2013

  Actual Average Record
Temperature  
Mean Temperature 17 °F 17 °F  
Max Temperature 30 °F 31 °F 53 °F (2005)
Min Temperature 4 °F 4 °F -33 °F (1984)
Degree Days  
Heating Degree Days 48 48  
Month to date heating degree days 1021 922  
Since 1 July heating degree days 3763 4285  
Cooling Degree Days 0 0  
Month to date cooling degree days 0 0  
Year to date cooling degree days 0 0  
Moisture  
Dew Point 11 °F    
Average Humidity 68    
Maximum Humidity 83    
Minimum Humidity 53    
Precipitation  
Precipitation 0.00 in 0.00 in 0.05 in (1967)
Month to date precipitation 0.04 0.14  
Year to date precipitation 0.04 0.14  
Sea Level Pressure  
Sea Level Pressure 30.35 in    
Wind  
Wind Speed 3 mph (South)    
Max Wind Speed 13 mph    
Max Gust Speed 14 mph    
Visibility 10 miles    
Events      
T = Trace of Precipitation, MM = Missing Value Source: NWS Daily Summary

Daily Weather History Graph

Daily Weather History Graph

Search for Another Location

Airport:

Trip Planner

Search our weather history database for the weather conditions in past years. The results will help you decide how hot, cold, wet, or windy it might be!

Date:

Astronomy

Jan. 19, 2013 Rise Set
Actual Time 7:40 AM MST 5:05 PM MST
Civil Twilight 7:08 AM MST 5:36 PM MST
Nautical Twilight 6:33 AM MST 6:12 PM MST
Astronomical Twilight 5:59 AM MST 6:46 PM MST
Moon 11:35 AM MST 1:14 AM MST
Length of Visible Light 10h 28m
Length of Day
9h 24m
First Quarter, 58% of the Moon is Illuminated
Jan 19
First Quarter
Jan 26
Full
Feb 3
Last Quarter
Feb 10
New
Feb 17
First Quarter

Hourly Weather History & Observations

Time (MST) Temp. Windchill Dew Point Humidity Pressure Visibility Wind Dir Wind Speed Gust Speed Precip Events Conditions
12:53 AM 17.1 °F - 12.0 °F 81% 30.25 in 10.0 mi Calm Calm - N/A   Clear
1:53 AM 8.1 °F - 5.0 °F 87% 30.28 in 10.0 mi Calm Calm - N/A   Clear
2:53 AM 19.0 °F 13.9 °F 12.0 °F 74% 30.27 in 10.0 mi West 3.5 mph - N/A   Clear
3:53 AM 12.0 °F 0.5 °F 7.0 °F 80% 30.31 in 10.0 mi SSE 8.1 mph - N/A   Clear
4:53 AM 6.1 °F -2.8 °F 1.9 °F 83% 30.35 in 10.0 mi SSW 4.6 mph - N/A   Clear
5:53 AM 12.9 °F 1.6 °F 7.0 °F 77% 30.35 in 10.0 mi South 8.1 mph - N/A   Clear
6:53 AM 10.0 °F - 3.9 °F 76% 30.38 in 10.0 mi Calm Calm - N/A   Clear
7:53 AM 8.1 °F - 3.0 °F 80% 30.40 in 10.0 mi Calm Calm - N/A   Clear
8:53 AM 14.0 °F 3.9 °F 7.0 °F 74% 30.40 in 10.0 mi South 6.9 mph - N/A   Clear
9:53 AM 10.9 °F - 6.1 °F 81% 30.45 in 10.0 mi Calm Calm - N/A   Clear
10:53 AM 19.9 °F 13.4 °F 10.9 °F 68% 30.41 in 10.0 mi WSW 4.6 mph - N/A   Clear
11:53 AM 24.1 °F - 12.9 °F 62% 30.38 in 10.0 mi Calm Calm - N/A   Clear
12:53 PM 27.0 °F - 14.0 °F 58% 30.35 in 10.0 mi Calm Calm - N/A   Clear
1:53 PM 28.9 °F - 16.0 °F 58% 30.36 in 10.0 mi Calm Calm - N/A   Clear
2:53 PM 30.0 °F - 16.0 °F 56% 30.32 in 10.0 mi Calm Calm - N/A   Clear
3:53 PM 28.0 °F 24.2 °F 17.1 °F 63% 30.35 in 10.0 mi WSW 3.5 mph - N/A   Clear
4:53 PM 25.0 °F - 16.0 °F 69% 30.37 in 10.0 mi Calm Calm - N/A   Clear
5:53 PM 21.9 °F - 12.9 °F 68% 30.35 in 10.0 mi Calm Calm - N/A   Clear
6:53 PM 19.9 °F - 14.0 °F 78% 30.36 in 10.0 mi Calm Calm - N/A   Clear
7:53 PM 19.0 °F 13.9 °F 14.0 °F 81% 30.36 in 10.0 mi East 3.5 mph - N/A   Clear
8:53 PM 17.1 °F 11.7 °F 12.9 °F 84% 30.35 in 10.0 mi ESE 3.5 mph - N/A   Clear
9:53 PM 15.1 °F 6.4 °F 10.9 °F 84% 30.36 in 10.0 mi South 5.8 mph - N/A   Clear
10:53 PM 15.1 °F 4.2 °F 10.9 °F 84% 30.34 in 10.0 mi SSW 8.1 mph - N/A   Clear
11:53 PM 12.9 °F - 10.0 °F 88% 30.33 in 10.0 mi Calm Calm - N/A   Clear